Regional Weather Roundup
Issued by NWS

Home | Current Version | Previous Version | Graphics & Text | Print | Product List | Glossary On
Versions: 1 2 3 4 5 6 7 8 9 10 11 12 13 14 15 16 17 18 19 20 21 22 23 24 25 26 27 28 29 30 31 32 33 34 35 36 37 38 39 40 41 42 43 44 45 46 47 48 49 50
000
ASUS43 KLMK 020502
RWRKY
KENTUCKY REGIONAL WEATHER ROUNDUP
NATIONAL WEATHER SERVICE LOUISVILLE KY
100 AM EDT MON MAY 02 2016

NOTE "FAIR" INDICATES FEW OR NO CLOUDS BELOW 12,000 FEET
WITH NO SIGNIFICANT WEATHER AND/OR OBSTRUCTIONS TO VISIBILITY.

KYZ001>023-026-027-061>063-070>075-020600-
WESTERN AND SOUTH CENTRAL KENTUCKY

CITY           SKY/WX    TMP DP  RH WIND       PRES   REMARKS
PADUCAH        CLEAR     65  50  58 NW6G17    29.98R
HENDERSON      CLOUDY    63  52  67 NW7       29.96R
OWENSBORO      PTCLDY    65  55  69 NW21G28   29.95R
HOPKINSVILLE   CLEAR     64  64  99 SW6       29.96S
BOWLING GREEN  CLEAR     68  61  78 SW8       29.95R
GLASGOW        NOT AVBL
$$

KYZ024-025-028>034-038-045-046-053-020600-
NORTH CENTRAL KENTUCKY

CITY           SKY/WX    TMP DP  RH WIND       PRES   REMARKS
LOUISVILLE/SDF PTCLDY    69  63  81 SW10      29.89R
LOUISVILLE/LOU PTCLDY    66  62  87 S3        29.90R
FORT KNOX      PTCLDY    65  60  84 S8        29.90R
$$

KYZ035>037-039>044-047>052-055>060-089>105-020600-
NORTHEAST KENTUCKY

CITY           SKY/WX    TMP DP  RH WIND       PRES   REMARKS
LEXINGTON      PTCLDY    64  59  83 S8        29.93R
COVINGTON      CLOUDY    62  60  93 S6        29.87F
FRANKFORT      PTCLDY    64  59  83 S6        29.91R
$$

KYZ054-064>069-076>088-106>120-020600-
SOUTHEAST KENTUCKY

CITY           SKY/WX    TMP DP  RH WIND       PRES   REMARKS
JACKSON        CLEAR     62  59  90 CALM      29.96F
LONDON         CLEAR     64  60  87 CALM      29.97S
SOMERSET       NOT AVBL
MIDDLESBORO    NOT AVBL
MONTICELLO     PTCLDY    68  62  81 SW15      29.99R
$$





USA.gov is the U.S. government's official web portal to all federal, state and local government web resources and services.